KB1DML-3 Weather Reports


Display with metric or nautical units.
time (UTC)temp
F
wind
direction
speed
MPH
gust
MPH
rain 1hr
in
rain 24hr
in
rain mn
in
humidity
%
barometer
mb
20260508104522 49 315 8.0 12.0 0.00 0.00 0.00 57
20260508104042 49 315 7.0 12.0 0.00 0.00 0.00 56
20260508103530 49 315 8.0 13.0 0.00 0.00 0.00 56
20260508103022 49 315 7.0 12.0 0.00 0.00 0.00 57
20260508102525 48 315 8.0 13.0 0.00 0.00 0.00 57
20260508102022 48 293 8.0 14.0 0.00 0.00 0.00 57
20260508101522 47 293 10.0 14.0 0.00 0.00 0.00 58
20260508101021 47 293 10.0 14.0 0.00 0.00 0.00 58
20260508100620 47 293 11.0 14.0 0.00 0.00 0.00 58
20260508100024 47 293 11.0 15.0 0.00 0.00 0.00 58
20260508095521 47 293 11.0 15.0 0.00 0.00 0.00 59
20260508095025 47 293 11.0 14.0 0.00 0.00 0.00 59
20260508094522 47 293 11.0 15.0 0.00 0.00 0.00 59
20260508094022 47 293 11.0 16.0 0.00 0.00 0.00 59
20260508093522 0 293 12.0 16.0 0.00 0.00 0.00
20260508093021 0 293 10.0 14.0 0.00 0.00 0.00
20260508092604 0 293 10.0 14.0 0.00 0.00 0.00
20260508092025 0 293 11.0 15.0 0.00 0.00 0.00
20260508091521 0 293 11.0 15.0 0.00 0.00 0.00
20260508091022 0 293 10.0 14.0 0.00 0.00 0.00
20260508090522 0 293 11.0 15.0 0.00 0.00 0.00
20260508090021 0 293 10.0 13.0 0.00 0.00 0.00
20260508085521 0 293 9.0 13.0 0.00 0.00 0.00
20260508085022 0 293 9.0 13.0 0.00 0.00 0.00
20260508084522 0 293 9.0 12.0 0.00 0.00 0.00
20260508084021 0 293 8.0 13.0 0.00 0.00 0.00
20260508083524 0 293 8.0 13.0 0.00 0.00 0.00
20260508083021 0 293 8.0 11.0 0.00 0.00 0.00
20260508082541 0 293 8.0 11.0 0.00 0.00 0.00
20260508082022 0 315 6.0 11.0 0.00 0.00 0.00
20260508081522 0 315 7.0 12.0 0.00 0.00 0.00
20260508081021 0 315 8.0 11.0 0.00 0.00 0.00
20260508080523 0 315 7.0 10.0 0.00 0.00 0.00
20260508080024 0 315 6.0 9.0 0.00 0.00 0.00
20260508075521 0 338 8.0 11.0 0.00 0.00 0.00
20260508075021 0 338 8.0 12.0 0.00 0.00 0.00
20260508074524 0 315 9.0 13.0 0.00 0.00 0.00
20260508074027 0 315 8.0 12.0 0.00 0.00 0.00
20260508073543 0 338 9.0 11.0 0.00 0.00 0.00
20260508073023 0 338 8.0 10.0 0.00 0.00 0.00
20260508072521 0 315 8.0 11.0 0.00 0.00 0.00
20260508072041 0 315 6.0 9.0 0.00 0.00 0.00
20260508071521 0 315 6.0 10.0 0.00 0.00 0.00
20260508071102 0 315 5.0 9.0 0.00 0.00 0.00
20260508070522 0 315 6.0 9.0 0.00 0.00 0.00
20260508070021 0 315 5.0 9.0 0.00 0.00 0.00
20260508065521 0 315 6.0 11.0 0.00 0.00 0.00
20260508063021 0 338 12.0 16.0 0.00 0.00 0.00
20260508062521 0 338 11.0 14.0 0.00 0.00 0.00
20260508062041 0 315 10.0 14.0 0.00 0.00 0.00
20260508055521 0 338 13.0 17.0 0.00 0.00 0.00
20260508055023 0 0.0 0.0 0.00 0.00 0.00
20260508054541 0 0.0 0.0 0.00 0.00 0.00
20260508054123 0 0.0 0.0 0.00 0.00 0.00
20260508053619 0 0.0 0.0 0.00 0.00 0.00
20260508053020 0 0.0 0.0 0.00 0.00 0.00
20260508052538 0 0.0 0.0 0.00 0.00 0.00
20260508052041 0 0.0 0.0 0.00 0.00 0.00
20260508051521 0 0.0 0.0 0.00 0.00 0.00
20260508051042 0 0.0 0.0 0.00 0.00 0.00
20260508050521 0 0.0 0.0 0.00 0.00 0.00
20260508050021 0 0.0 0.0 0.00 0.00 0.00
20260508045521 0 0.0 0.0 0.00 0.00 0.00
20260508045012 0 0.0 0.0 0.00 0.00 0.00
20260508044535 0 0.0 0.0 0.00 0.00 0.00
20260508044020 0 0.0 0.0 0.00 0.00 0.00
20260508043521 0 0.0 0.0 0.00 0.00 0.00
20260508043020 0 0.0 0.0 0.00 0.00 0.00
20260508042541 0 0.0 0.0 0.00 0.00 0.00
20260508042021 0 0.0 0.0 0.00 0.00 0.00
20260508041521 0 321 15.0 0.0 0.00 0.00 0.00
20260508041020 0 321 15.0 0.0 0.00 0.00 0.00
20260508040531 0 315 15.0 15.0 0.00 0.00 0.00
20260508040024 0 315 15.0 22.0 0.00 0.00 0.00
20260508035525 0 315 15.0 22.0 0.00 0.00 0.00
20260508035021 0 315 15.0 20.0 0.00 0.00 0.00
20260508034525 0 315 13.0 21.0 0.00 0.00 0.00
20260508034022 0 315 12.0 20.0 0.00 0.00 0.00
20260508033522 0 293 12.0 19.0 0.00 0.00 0.00
20260508033021 0 293 12.0 20.0 0.00 0.00 0.00
20260508032021 0 293 12.0 18.0 0.00 0.00 0.00
20260508031521 0 293 14.0 21.0 0.00 0.00 0.00
20260508031022 0 293 13.0 18.0 0.00 0.00 0.00
20260508030543 0 293 13.0 19.0 0.00 0.00 0.00
20260508030022 0 293 13.0 17.0 0.00 0.00 0.00
20260508025521 0 293 12.0 16.0 0.00 0.00 0.00
20260508025022 0 293 11.0 17.0 0.00 0.00 0.00
20260508024021 0 293 10.0 17.0 0.00 0.00 0.00
20260508023548 0 293 10.0 16.0 0.00 0.00 0.00
20260508023021 0 293 10.0 15.0 0.00 0.00 0.00
20260508022521 0 293 10.0 15.0 0.00 0.00 0.00
20260508022022 0 293 10.0 15.0 0.00 0.00 0.00
20260508021543 0 293 10.0 12.0 0.00 0.00 0.00
20260508021021 0 293 10.0 13.0 0.00 0.00 0.00
20260508020528 0 293 10.0 13.0 0.00 0.00 0.00
20260508020023 0 293 10.0 13.0 0.00 0.00 0.00
20260508015541 0 293 10.0 14.0 0.00 0.00 0.00
20260508015022 0 293 8.0 12.0 0.00 0.00 0.00
20260508014521 0 315 7.0 11.0 0.00 0.00 0.00
20260508014041 0 293 8.0 13.0 0.00 0.00 0.00
20260508013522 0 315 8.0 13.0 0.00 0.00 0.00
20260508013021 0 315 8.0 14.0 0.00 0.00 0.00
20260508012559 0 293 8.0 12.0 0.00 0.00 0.00
20260508012024 0 293 8.0 12.0 0.00 0.00 0.00
20260508011522 0 315 7.0 11.0 0.00 0.00 0.00
20260508011021 0 315 7.0 12.0 0.00 0.00 0.00
20260508010521 0 315 7.0 12.0 0.00 0.00 0.00
20260508010043 0 315 7.0 12.0 0.00 0.00 0.00
20260508003522 0 315 7.0 11.0 0.00 0.00 0.00
20260508003021 0 315 7.0 10.0 0.00 0.00 0.00
20260508002523 0 315 7.0 11.0 0.00 0.00 0.00
20260508002021 0 315 6.0 11.0 0.00 0.00 0.00
20260508001541 0 293 6.0 10.0 0.00 0.00 0.00
20260508001041 0 293 6.0 10.0 0.00 0.00 0.00
20260508000544 0 315 5.0 10.0 0.00 0.00 0.00
20260508000205 0 315 5.0 10.0 0.00 0.00 0.00
20260507234524 0 293 2.0 6.0 0.00 0.00 0.00
20260507234022 0 180 2.0 5.0 0.00 0.00 0.00
20260507233541 52 203 2.0 4.0 0.00 0.00 0.00 83
20260507233021 52 203 3.0 5.0 0.00 0.00 0.00 83
20260507232521 52 203 2.0 5.0 0.00 0.00 0.00 83
20260507232021 52 203 4.0 6.0 0.00 0.00 0.00 83
20260507231521 52 180 3.0 4.0 0.00 0.00 0.00 83
20260507231021 52 135 3.0 5.0 0.00 0.00 0.00 83
20260507230541 52 135 3.0 6.0 0.00 0.00 0.00 83
20260507230021 53 158 4.0 6.0 0.00 0.00 0.00 82
20260507225521 53 180 3.0 5.0 0.00 0.00 0.00 82
20260507225022 53 203 3.0 6.0 0.00 0.00 0.00 82
20260507224530 53 203 2.0 4.0 0.00 0.00 0.00 82
20260507224021 53 180 5.0 8.0 0.00 0.00 0.00 82
20260507223602 53 180 5.0 9.0 0.00 0.00 0.00 81
20260507223021 53 158 2.0 6.0 0.00 0.00 0.00 81
20260507222522 53 135 2.0 10.0 0.00 0.00 0.00 81
20260507222022 53 180 7.0 10.0 0.00 0.00 0.00 81
20260507221521 53 180 6.0 8.0 0.00 0.00 0.00 80
20260507221046 53 180 7.0 9.0 0.00 0.00 0.00 80
20260507220534 53 180 7.0 11.0 0.00 0.00 0.00 81
20260507220025 53 180 8.0 11.0 0.00 0.00 0.00 81
20260507215525 53 180 5.0 9.0 0.00 0.00 0.00 81
20260507215042 53 180 3.0 7.0 0.00 0.00 0.00 81
20260507214541 54 180 5.0 10.0 0.00 0.00 0.00 81
20260507214028 53 180 4.0 9.0 0.00 0.00 0.00 81
20260507213521 53 180 6.0 10.0 0.00 0.00 0.00 81
20260507212021 53 180 8.0 12.0 0.00 0.00 0.00 81
20260507211532 53 180 7.0 11.0 0.00 0.00 0.00 81
20260507211021 53 180 7.0 11.0 0.00 0.00 0.00 81
20260507210521 53 158 9.0 12.0 0.00 0.00 0.00 82
20260507210021 53 158 8.0 11.0 0.00 0.00 0.00 81
20260507205525 53 158 10.0 11.0 0.00 0.00 0.00 81
20260507205021 53 158 10.0 15.0 0.00 0.00 0.00 81
20260507204521 53 158 11.0 14.0 0.00 0.00 0.00 81
20260507204044 53 180 10.0 15.0 0.00 0.00 0.00 81
20260507203521 53 158 9.0 12.0 0.00 0.00 0.00 81
20260507203020 53 135 6.0 9.0 0.00 0.00 0.00 82
20260507202525 53 158 8.0 13.0 0.00 0.00 0.00 81
20260507200023 53 180 10.0 14.0 0.00 0.00 0.00 82
20260507195521 53 180 11.0 15.0 0.00 0.00 0.00 83
20260507195021 53 180 12.0 17.0 0.00 0.00 0.00 82
20260507194520 53 158 11.0 17.0 0.00 0.00 0.00 83
20260507194021 53 158 14.0 18.0 0.00 0.00 0.00 83
20260507193521 53 158 14.0 17.0 0.00 0.00 0.00 82
20260507193021 53 180 14.0 18.0 0.00 0.00 0.00 82
20260507192520 53 158 11.0 16.0 0.00 0.00 0.00 82
20260507191021 53 180 14.0 17.0 0.00 0.00 0.00 82
20260507190521 54 180 13.0 17.0 0.00 0.00 0.00 82
20260507190024 54 180 14.0 17.0 0.00 0.00 0.00 81
20260507185521 54 180 13.0 16.0 0.00 0.00 0.00 81
20260507185029 54 180 12.0 15.0 0.00 0.00 0.00 80
20260507184021 54 180 12.0 16.0 0.00 0.00 0.00 80
20260507183020 54 180 11.0 14.0 0.00 0.00 0.00 80
20260507182520 54 180 11.0 14.0 0.00 0.00 0.00 79
20260507182021 54 180 12.0 14.0 0.00 0.00 0.00 79
20260507181528 54 180 11.0 14.0 0.00 0.00 0.00 79
20260507181034 54 180 10.0 12.0 0.00 0.00 0.00 79
20260507180526 54 180 11.0 14.0 0.00 0.00 0.00 79
20260507180024 54 180 9.0 12.0 0.00 0.00 0.00 80
20260507175520 54 180 11.0 13.0 0.00 0.00 0.00 80
20260507175023 54 180 11.0 13.0 0.00 0.00 0.00 79
20260507174520 54 180 11.0 13.0 0.00 0.00 0.00 78
20260507174021 54 180 12.0 13.0 0.00 0.00 0.00 78
20260507173522 54 180 9.0 12.0 0.00 0.00 0.00 78
20260507173020 54 203 9.0 10.0 0.00 0.00 0.00 78
20260507172541 54 180 9.0 10.0 0.00 0.00 0.00 79
20260507172024 53 203 10.0 11.0 0.00 0.00 0.00 80
20260507171521 53 203 9.0 12.0 0.00 0.00 0.00 80
20260507171020 52 203 11.0 14.0 0.00 0.00 0.00 79
20260507170520 53 203 11.0 14.0 0.00 0.00 0.00 80
20260507170040 52 203 12.0 14.0 0.00 0.00 0.00 79
20260507165541 52 203 10.0 14.0 0.00 0.00 0.00 80
20260507165021 52 203 10.0 12.0 0.00 0.00 0.00 80
20260507164521 52 203 11.0 14.0 0.00 0.00 0.00 79
20260507164020 53 203 11.0 13.0 0.00 0.00 0.00 78
20260507163541 53 203 11.0 13.0 0.00 0.00 0.00 78
20260507163020 53 203 10.0 11.0 0.00 0.00 0.00 78
20260507162522 53 180 9.0 11.0 0.00 0.00 0.00 79
20260507162020 53 180 10.0 11.0 0.00 0.00 0.00 77
20260507161540 53 203 10.0 12.0 0.00 0.00 0.00 78
20260507161040 53 203 9.0 11.0 0.00 0.00 0.00 78
20260507160023 53 180 9.0 10.0 0.00 0.00 0.00 78
20260507155520 53 203 9.0 10.0 0.00 0.00 0.00 78
20260507155020 53 203 10.0 12.0 0.00 0.00 0.00 77
20260507154600 53 203 11.0 14.0 0.00 0.00 0.00 76
20260507154020 53 203 12.0 16.0 0.00 0.00 0.00 74
20260507153524 55 203 12.0 16.0 0.00 0.00 0.00 72
20260507153022 56 203 9.0 15.0 0.00 0.00 0.00 66
20260507152524 57 68 6.0 10.0 0.00 0.00 0.00 67
20260507152022 58 68 7.0 10.0 0.00 0.00 0.00 62
20260507151542 59 23 6.0 11.0 0.00 0.00 0.00 61
20260507151027 59 45 8.0 12.0 0.00 0.00 0.00 61
20260507150527 60 23 9.0 13.0 0.00 0.00 0.00 60
20260507150023 59 23 9.0 12.0 0.00 0.00 0.00 59
20260507145522 60 23 8.0 11.0 0.00 0.00 0.00 60
20260507145022 60 23 7.0 10.0 0.00 0.00 0.00 60
20260507144520 60 23 7.0 10.0 0.00 0.00 0.00 62
20260507144203 60 338 6.0 10.0 0.00 0.00 0.00 63
20260507143522 60 23 8.0 10.0 0.00 0.00 0.00 63
20260507143022 60 23 5.0 8.0 0.00 0.00 0.00 63
20260507142522 60 338 5.0 9.0 0.00 0.00 0.00 63
20260507142022 60 23 4.0 8.0 0.00 0.00 0.00 64
20260507141522 59 338 7.0 10.0 0.00 0.00 0.00 66
20260507141027 59 338 7.0 11.0 0.00 0.00 0.00 67
20260507140525 58 338 7.0 10.0 0.00 0.00 0.00 68
20260507140037 58 23 6.0 10.0 0.00 0.00 0.00 70
20260507135521 57 338 7.0 10.0 0.00 0.00 0.00 71
20260507134522 57 338 8.0 11.0 0.00 0.00 0.00 71
20260507134022 56 338 8.0 13.0 0.00 0.00 0.00 71
20260507133522 56 338 10.0 13.0 0.00 0.00 0.00 72
20260507133022 56 338 8.0 12.0 0.00 0.00 0.00 74
20260507132521 55 338 10.0 13.0 0.00 0.00 0.00 74
20260507132022 55 338 9.0 12.0 0.00 0.00 0.00 76
20260507131522 55 338 8.0 10.0 0.00 0.00 0.00 78
20260507131022 54 338 8.0 11.0 0.00 0.00 0.00 80
20260507130523 53 315 7.0 10.0 0.00 0.00 0.00 81
20260507130043 52 315 8.0 11.0 0.00 0.00 0.00 82
20260507125522 52 315 9.0 14.0 0.00 0.00 0.00 83
20260507125024 51 315 10.0 14.0 0.00 0.00 0.00 84
20260507124523 51 338 11.0 14.0 0.00 0.00 0.00 85
20260507124020 51 338 11.0 14.0 0.00 0.00 0.00 85
20260507123521 50 338 11.0 13.0 0.00 0.00 0.00 86
20260507123102 0 338 10.0 13.0 0.00 0.00 0.00
20260507122521 0 338 11.0 15.0 0.00 0.00 0.00
20260507122026 0 338 11.0 14.0 0.00 0.00 0.00
20260507121521 0 338 11.0 15.0 0.00 0.00 0.00
20260507121022 0 338 10.0 13.0 0.00 0.00 0.00
20260507120531 0 338 9.0 13.0 0.00 0.00 0.00
20260507120024 0 338 9.0 13.0 0.00 0.00 0.00
20260507115521 0 338 9.0 13.0 0.00 0.00 0.00
20260507115044 0 338 9.0 12.0 0.00 0.00 0.00
20260507114522 0 338 11.0 14.0 0.00 0.00 0.00
20260507114041 0 338 9.0 12.0 0.00 0.00 0.00
20260507113525 0 338 9.0 13.0 0.00 0.00 0.00
20260507113023 0 338 8.0 12.0 0.00 0.00 0.00
20260507112522 0 338 8.0 10.0 0.00 0.00 0.00
20260507111521 0 338 6.0 10.0 0.00 0.00 0.00
20260507111024 0 338 5.0 8.0 0.00 0.00 0.00
20260507110542 0 315 5.0 8.0 0.00 0.00 0.00
20260507110022 0 315 6.0 9.0 0.00 0.00 0.00
20260507105522 0 315 7.0 11.0 0.00 0.00 0.00
20260507105022 0 315 7.0 10.0 0.00 0.00 0.00